20170227,10020.00
20170228,10020.00
20170301,10003.00
20170302,9992.00
20170303,10005.00
20170306,10011.00
20170307,10006.00
20170308,9998.00
20170309,9988.00
20170310,9982.00
20170313,9982.00
20170314,9984.00
20170315,9985.00
20170316,10004.00
20170317,10002.00
20170321,10009.00
20170322,10017.00
20170323,10018.00
20170324,10012.00
20170327,10017.00
20170328,10021.00
20170329,10022.00
20170330,10013.00
20170331,10006.00
20170403,10001.00
20170404,10004.00
20170405,10002.00
20170406,10013.00
20170407,10022.00
20170410,10018.00
20170411,10026.00
20170412,10043.00
20170413,10045.00
20170414,10058.00
20170417,10068.00
20170418,10054.00
20170419,10063.00
20170420,10062.00
20170421,10061.00
20170424,10051.00
20170425,10054.00
20170426,10047.00
20170427,10044.00
20170428,10054.00
20170501,10052.00
20170502,10047.00
20170508,10037.00
20170509,10029.00
20170510,10024.00
20170511,10012.00
20170512,10016.00
20170515,10023.00
20170516,10017.00
20170517,10019.00
20170518,10027.00
20170519,10036.00
20170522,10029.00
20170523,10033.00
20170524,10029.00
20170525,10024.00
20170526,10038.00
20170529,10033.00
20170530,10038.00
20170531,10033.00
20170601,10026.00
20170602,10029.00
20170605,10033.00
20170606,10036.00
20170607,10037.00
20170608,10010.00
20170609,10025.00
20170612,10021.00
20170613,10023.00
20170614,10025.00
20170615,10036.00
20170616,10030.00
20170619,10029.00
20170620,10033.00
20170621,10034.00
20170622,10037.00
20170623,10034.00
20170626,10033.00
20170627,10039.00
20170628,10030.00
20170629,10030.00
20170630,10004.00
20170703,10004.00
20170704,10004.00
20170705,9997.00
20170706,9981.00
20170707,9984.00
20170710,9981.00
20170711,9974.00
20170712,9983.00
20170713,9999.00
20170714,9999.00
20170718,10007.00
20170719,10004.00
20170720,10004.00
20170721,10007.00
20170724,10008.00
20170725,10011.00
20170726,10003.00
20170727,10009.00
20170728,10007.00
20170731,10005.00
20170801,10003.00
20170802,10006.00
20170803,10011.00
20170804,10013.00
20170807,10008.00
20170808,10009.00
20170809,10019.00
20170810,10021.00
20170814,10026.00
20170815,10027.00
20170816,10026.00
20170817,10025.00
20170818,10031.00
20170821,10038.00
20170822,10040.00
20170823,10043.00
20170824,10049.00
20170825,10051.00
20170828,10053.00
20170829,10056.00
20170830,10054.00
20170831,10057.00
20170901,10060.00
20170904,10066.00
20170905,10066.00
20170906,10067.00
20170907,10058.00
20170908,10073.00
20170911,10067.00
20170912,10052.00
20170913,10048.00
20170914,10034.00
20170915,10051.00
20170919,10042.00
20170920,10044.00
20170921,10047.00
20170922,10053.00
20170925,10053.00
20170926,10048.00
20170927,10030.00
20170928,10008.00
20170929,10020.00
20171002,10009.00
20171003,10008.00
20171004,10026.00
20171005,10030.00
20171006,10018.00
20171010,10018.00
20171011,10017.00
20171012,10018.00
20171013,10016.00
20171016,10016.00
20171017,10014.00
20171018,10011.00
20171019,10011.00
20171020,10007.00
20171023,10010.00
20171024,10014.00
20171025,10016.00
20171026,10015.00
20171027,10015.00
20171030,10017.00
20171031,10018.00
20171101,10023.00
20171102,10027.00
20171106,10050.00
20171107,10051.00
20171108,10058.00
20171109,10050.00
20171110,10045.00
20171113,10035.00
20171114,10033.00
20171115,10040.00
20171116,10039.00
20171117,10044.00
20171120,10048.00
20171121,10051.00
20171122,10056.00
20171124,10048.00
20171127,10041.00
20171128,10037.00
20171129,10047.00
20171130,10044.00
20171201,10043.00
20171204,10037.00
20171205,10031.00
20171206,10036.00
20171207,10038.00
20171208,10046.00
20171211,10045.00
20171212,10051.00
20171213,10049.00
20171214,10050.00
20171215,10052.00
20171218,10056.00
20171219,10057.00
20171220,10046.00
20171221,10042.00
20171222,10047.00
20171225,10053.00
20171226,10050.00
20171227,10045.00
20171228,10043.00
20171229,10049.00
20180104,10045.00
20180105,10042.00
20180109,10034.00
20180110,10019.00
20180111,10027.00
20180112,10030.00
20180115,10029.00
20180116,10027.00
20180117,10024.00
20180118,10023.00
20180119,10028.00
20180122,10030.00
20180123,10035.00
20180124,10030.00
20180125,10026.00
20180126,10034.00
20180129,10032.00
20180130,10021.00
20180131,10031.00
20180201,10021.00
20180202,10027.00
20180205,10029.00
20180206,10035.00
20180207,10035.00
20180208,10029.00
20180209,10036.00
20180213,10043.00
20180214,10049.00
20180215,10050.00
20180216,10052.00
20180219,10051.00
20180220,10049.00
20180221,10054.00
20180222,10058.00
20180223,10064.00
20180226,10064.00
20180227,10068.00
20180228,10068.00
20180301,10069.00
20180302,10056.00
20180305,10079.00
20180306,10074.00
20180307,10077.00
20180308,10071.00
20180309,10072.00
20180312,10074.00
20180313,10072.00
20180314,10073.00
20180315,10075.00
20180316,10080.00
20180319,10082.00
20180320,10082.00
20180322,10085.00
20180323,10094.00
20180326,10094.00
20180327,10089.00
20180328,10091.00
20180329,10086.00
20180330,10083.00
20180402,10083.00
20180403,10099.00
20180404,10098.00
20180405,10086.00
20180406,10083.00
20180409,10088.00
20180410,10092.00
20180411,10098.00
20180412,10097.00
20180413,10099.00
20180416,10095.00
20180417,10094.00
20180418,10099.00
20180419,10093.00
20180420,10073.00
20180423,10073.00
20180424,10075.00
20180425,10071.00
20180426,10068.00
20180427,10074.00
20180501,10093.00
20180502,10087.00
20180507,10087.00
20180508,10081.00
20180509,10082.00
20180510,10082.00
20180511,10082.00
20180514,10078.00
20180515,10073.00
20180516,10072.00
20180517,10067.00
20180518,10067.00
20180521,10070.00
20180522,10074.00
20180523,10080.00
20180524,10080.00
20180525,10085.00
20180528,10086.00
20180529,10095.00
20180530,10101.00
20180531,10095.00
20180601,10089.00
20180604,10082.00
20180605,10084.00
20180606,10081.00
20180607,10085.00
20180608,10089.00
20180611,10086.00
20180612,10082.00
20180613,10083.00
20180614,10091.00
20180615,10096.00
20180618,10096.00
20180619,10100.00
20180620,10096.00
20180621,10096.00
20180622,10100.00
20180625,10099.00
20180626,10095.00
20180627,10094.00
20180628,10099.00
20180629,10099.00
20180702,10104.00
20180703,10103.00
20180704,10108.00
20180705,10115.00
20180706,10115.00
20180709,10118.00
20180710,10112.00
20180711,10109.00
20180712,10112.00
20180713,10112.00
20180717,10114.00
20180718,10110.00
20180719,10114.00
20180720,10116.00
20180723,10059.00
20180724,10047.00
20180725,10066.00
20180726,10049.00
20180727,10043.00
20180730,10029.00
20180731,10079.00
20180801,10023.00
20180802,10020.00
20180803,10020.00
20180806,10024.00
20180807,10023.00
20180808,10016.00
20180809,10016.00
20180810,10027.00
20180813,10035.00
20180814,10027.00
20180815,10030.00
20180816,10026.00
20180817,10028.00
20180820,10030.00
20180821,10037.00
20180822,10030.00
20180823,10030.00
20180824,10029.00
20180827,10036.00
20180828,10033.00
20180829,10030.00
20180830,10020.00
20180831,10023.00
20180903,10016.00
20180904,10017.00
20180905,10023.00
20180906,10027.00
20180907,10027.00
20180910,10023.00
20180911,10029.00
20180912,10029.00
20180913,10028.00
20180914,10027.00
20180918,10022.00
20180919,10018.00
20180920,10018.00
20180921,9999.00
20180925,9992.00
20180926,9997.00
20180927,10008.00
20180928,9998.00
20181001,9993.00
20181002,9995.00
20181003,9996.00
20181004,9972.00
20181005,9983.00
20181009,9977.00
20181010,9981.00
20181011,9993.00
20181012,9987.00
20181015,9990.00
20181016,9986.00
20181017,9988.00
20181018,9985.00
20181019,9986.00
20181022,9983.00
20181023,9987.00
20181024,10000.00
20181025,10021.00
20181026,10022.00
20181029,10027.00
20181030,10021.00
20181031,10014.00
20181101,10014.00
20181102,10011.00
20181105,10010.00
20181106,10007.00
20181107,10009.00
20181108,10007.00
20181109,10010.00
20181112,10014.00
20181113,10020.00
20181114,10026.00
20181115,10027.00
20181116,10030.00
20181119,10044.00
20181120,10036.00
20181121,10044.00
20181122,10045.00
20181126,10052.00
20181127,10053.00
20181128,10042.00
20181129,10057.00
20181130,10055.00
20181203,10059.00
20181204,10076.00
20181205,10070.00
20181206,10079.00
20181207,10068.00
20181210,10083.00
20181211,10081.00
20181212,10076.00
20181213,10074.00
20181214,10089.00
20181217,10094.00
20181218,10103.00
20181219,10098.00
20181220,10112.00
20181221,10096.00
20181225,10121.00
20181226,10114.00
20181227,10109.00
20181228,10127.00
20190104,10168.00
20190107,10147.00
20190108,10134.00
20190109,10123.00
20190110,10131.00
20190111,10140.00
20190115,10139.00
20190116,10146.00
20190117,10146.00
20190118,10144.00
20190121,10146.00
20190122,10152.00
20190123,10154.00
20190124,10155.00
20190125,10163.00
20190128,10165.00
20190129,10163.00
20190130,10161.00
20190131,10167.00
20190201,10195.00
20190204,10186.00
20190205,10188.00
20190206,10189.00
20190207,10179.00
20190208,10199.00
20190212,10184.00
20190213,10178.00
20190214,10181.00
20190215,10195.00
20190218,10195.00
20190219,10199.00
20190220,10204.00
20190221,10209.00
20190222,10207.00
20190225,10202.00
20190226,10191.00
20190227,10188.00
20190228,10187.00
20190301,10176.00
20190304,10165.00
20190305,10162.00
20190306,10171.00
20190307,10178.00
20190308,10202.00
20190311,10202.00
20190312,10198.00
20190313,10210.00
20190314,10211.00
20190315,10207.00
20190318,10206.00
20190319,10215.00
20190320,10209.00
20190322,10240.00
20190325,10254.00
20190326,10231.00
20190327,10233.00
20190328,10264.00
20190329,10258.00
20190401,10243.00
20190402,10233.00
20190403,10235.00
20190404,10229.00
20190405,10219.00
20190408,10234.00
20190409,10231.00
20190410,10240.00
20190411,10247.00
20190412,10240.00
20190415,10222.00
20190416,10218.00
20190417,10201.00
20190418,10217.00
20190419,10207.00
20190422,10210.00
20190423,10216.00
20190424,10223.00
20190425,10213.00
20190426,10225.00
20190507,10235.00
20190508,10239.00
20190509,10235.00
20190510,10233.00
20190513,10230.00
20190514,10235.00
20190515,10235.00
20190516,10248.00
20190517,10239.00
20190520,10228.00
20190521,10232.00
20190522,10241.00
20190523,10248.00
20190524,10255.00
20190527,10252.00
20190528,10262.00
20190529,10281.00
20190530,10268.00
20190531,10289.00
20190603,10281.00
20190604,10295.00
20190605,10320.00
20190606,10318.00
20190607,10316.00
20190610,10334.00
20190611,10326.00
20190612,10331.00
20190613,10323.00
20190614,10332.00
20190617,10331.00
20190618,10336.00
20190619,10351.00
20190620,10385.00
20190621,10371.00
20190624,10354.00
20190625,10354.00
20190626,10340.00
20190627,10329.00
20190628,10350.00
20190701,10335.00
20190702,10332.00
20190703,10358.00
20190704,10361.00
20190705,10368.00
20190708,10353.00
20190709,10354.00
20190710,10334.00
20190711,10346.00
20190712,10320.00
20190716,10327.00
20190717,10331.00
20190718,10342.00
20190719,10340.00
20190722,10340.00
20190723,10347.00
20190724,10351.00
20190725,10357.00
20190726,10354.00
20190729,10348.00
20190730,10354.00
20190731,10360.00
20190801,10341.00
20190802,10378.00
20190805,10406.00
20190806,10391.00
20190807,10413.00
20190808,10418.00
20190809,10450.00
20190813,10473.00
20190814,10454.00
20190815,10481.00
20190816,10466.00
20190819,10456.00
20190820,10462.00
20190821,10470.00
20190822,10467.00
20190823,10456.00
20190826,10499.00
20190827,10485.00
20190828,10487.00
20190829,10507.00
20190830,10499.00
20190902,10493.00
20190903,10508.00
20190904,10516.00
20190905,10493.00
20190906,10454.00
20190909,10457.00
20190910,10416.00
20190911,10402.00
20190912,10406.00
20190913,10357.00
20190917,10356.00
20190918,10381.00
20190919,10410.00
20190920,10390.00
20190924,10403.00
20190925,10408.00
20190926,10408.00
20190927,10409.00
20190930,10386.00
20191001,10326.00
20191002,10356.00
20191003,10388.00
20191004,10398.00
20191007,10402.00
20191008,10378.00
20191009,10381.00
20191010,10387.00
20191011,10360.00
20191015,10356.00
20191016,10351.00
20191017,10348.00
20191018,10338.00
20191021,10325.00
20191023,10330.00
20191024,10342.00
20191025,10337.00
20191028,10328.00
20191029,10309.00
20191030,10321.00
20191031,10343.00
20191101,10382.00
20191105,10341.00
20191106,10302.00
20191107,10302.00
20191108,10272.00
20191111,10276.00
20191112,10250.00
20191113,10261.00
20191114,10285.00
20191115,10278.00
20191118,10293.00
20191119,10298.00
20191120,10315.00
20191121,10324.00
20191122,10293.00
20191125,10294.00
20191126,10309.00
20191127,10329.00
20191128,10311.00
20191129,10305.00
20191202,10279.00
20191203,10263.00
20191204,10279.00
20191205,10286.00
20191206,10260.00
20191209,10253.00
20191210,10267.00
20191211,10252.00
20191212,10265.00
20191213,10266.00
20191216,10274.00
20191217,10264.00
20191218,10264.00
20191219,10258.00
20191220,10239.00
20191223,10241.00
20191224,10238.00
20191225,10260.00
20191226,10259.00
20191227,10260.00
20191230,10273.00
20200106,10283.00
20200107,10258.00
20200108,10270.00
20200109,10260.00
20200110,10255.00
20200114,10242.00
20200115,10244.00
20200116,10242.00
20200117,10247.00
20200120,10238.00
20200121,10259.00
20200122,10257.00
20200123,10279.00
20200124,10280.00
20200127,10306.00
20200128,10298.00
20200129,10302.00
20200130,10318.00
20200131,10316.00
20200203,10309.00
20200204,10299.00
20200205,10282.00
20200206,10271.00
20200207,10293.00
20200210,10311.00
20200212,10297.00
20200213,10289.00
20200214,10286.00
20200217,10299.00
20200218,10315.00
20200219,10307.00
20200220,10307.00
20200221,10323.00
20200225,10349.00
20200226,10337.00
20200227,10345.00
20200228,10396.00
20200302,10385.00
20200303,10356.00
20200304,10377.00
20200305,10342.00
20200306,10378.00
20200309,10413.00
20200310,10332.00
20200311,10346.00
20200312,10322.00
20200313,10269.00
20200316,10253.00
20200317,10260.00
20200318,10224.00
20200319,10188.00
20200323,10208.00
20200324,10224.00
20200325,10225.00
20200326,10233.00
20200327,10226.00
20200330,10239.00
20200331,10226.00
20200401,10243.00
20200402,10260.00
20200403,10257.00
20200406,10237.00
20200407,10228.00
20200408,10224.00
20200409,10215.00
20200410,10229.00
20200413,10223.00
20200414,10213.00
20200415,10208.00
20200416,10216.00
20200417,10198.00
20200420,10206.00
20200421,10210.00
20200422,10238.00
20200423,10247.00
20200424,10253.00
20200427,10254.00
20200428,10266.00
20200430,10259.00
20200501,10250.00
20200507,10231.00
20200508,10230.00
20200511,10219.00
20200512,10232.00
20200513,10229.00
20200514,10232.00
20200515,10222.00
20200518,10231.00
20200519,10221.00
20200520,10227.00
20200521,10239.00
20200522,10241.00
20200525,10224.00
20200526,10222.00
20200527,10227.00
20200528,10227.00
20200529,10214.00
20200601,10211.00
20200602,10210.00
20200603,10206.00
20200604,10187.00
20200605,10171.00
20200608,10169.00
20200609,10195.00
20200610,10193.00
20200611,10210.00
20200612,10199.00
20200615,10211.00
20200616,10192.00
20200617,10191.00
20200618,10191.00
20200619,10188.00
20200622,10192.00
20200623,10190.00
20200624,10186.00
20200625,10187.00
20200626,10188.00
20200629,10187.00
20200630,10172.00
20200701,10153.00
20200702,10152.00
20200703,10171.00
20200706,10156.00
20200707,10161.00
20200708,10187.00
20200709,10192.00
20200710,10191.00
20200713,10169.00
20200714,10175.00
20200715,10171.00
20200716,10181.00
20200717,10187.00
20200720,10177.00
20200721,10188.00
20200722,10188.00
20200727,10186.00
20200728,10188.00
20200729,10199.00
20200730,10200.00
20200731,10207.00
20200803,10192.00
20200804,10198.00
20200805,10204.00
20200806,10197.00
20200807,10201.00
20200811,10184.00
20200812,10168.00
20200813,10173.00
20200814,10156.00
20200817,10161.00
20200818,10166.00
20200819,10173.00
20200820,10167.00
20200821,10160.00
20200824,10174.00
20200825,10175.00
20200826,10164.00
20200827,10165.00
20200828,10147.00
20200831,10159.00
20200901,10162.00
20200902,10161.00
20200903,10168.00
20200904,10164.00
20200907,10158.00
20200908,10167.00
20200909,10175.00
20200910,10174.00
20200911,10186.00
20200914,10188.00
20200915,10190.00
20200916,10187.00
20200917,10191.00
20200918,10190.00
20200923,10196.00
20200924,10192.00
20200925,10190.00
20200928,10177.00
20200929,10184.00
20200930,10187.00
20201001,10182.00
20201002,10188.00
20201005,10181.00
20201006,10169.00
20201007,10171.00
20201008,10175.00
20201009,10174.00
20201012,10174.00
20201013,10172.00
20201014,10173.00
20201015,10180.00
20201016,10185.00
20201019,10182.00
20201020,10190.00
20201021,10179.00
20201022,10180.00
20201023,10172.00
20201026,10176.00
20201027,10180.00
20201028,10182.00
20201029,10181.00
20201030,10170.00
20201102,10171.00
20201104,10174.00
20201105,10194.00
20201106,10191.00
20201109,10191.00
20201110,10175.00
20201111,10171.00
20201112,10177.00
20201113,10180.00
20201116,10181.00
20201117,10182.00
20201118,10193.00
20201119,10193.00
20201120,10199.00
20201124,10189.00
20201125,10191.00
20201126,10186.00
20201127,10181.00
20201130,10182.00
20201201,10188.00
20201202,10187.00
20201203,10188.00
20201204,10184.00
20201207,10187.00
20201208,10197.00
20201209,10199.00
20201210,10202.00
20201211,10201.00
20201214,10195.00
20201215,10201.00
20201216,10196.00
20201217,10198.00
20201218,10198.00
20201221,10194.00
20201222,10200.00
20201223,10204.00
20201224,10197.00
20201225,10188.00
20201228,10187.00
20201229,10184.00
20201230,10183.00
20210104,10181.00
20210105,10192.00
20210106,10185.00
20210107,10176.00
20210108,10174.00
20210112,10176.00
20210113,10184.00
20210114,10179.00
20210115,10179.00
20210118,10163.00
20210119,10164.00
20210120,10165.00
20210121,10176.00
20210122,10165.00
20210125,10166.00
20210126,10174.00
20210127,10168.00
20210128,10170.00
20210129,10157.00
20210201,10148.00
20210202,10149.00
20210203,10153.00
20210204,10156.00
20210205,10157.00
20210208,10147.00
20210209,10144.00
20210210,10143.00
20210212,10151.00
20210215,10139.00
20210216,10140.00
20210217,10123.00
20210218,10129.00
20210219,10121.00
20210222,10106.00
20210224,10101.00
20210225,10082.00
20210226,10072.00
20210301,10090.00
20210302,10110.00
20210303,10124.00
20210304,10104.00
20210305,10142.00
20210308,10124.00
20210309,10109.00
20210310,10114.00
20210311,10136.00
20210312,10128.00
20210315,10129.00
20210316,10138.00
20210317,10141.00
20210318,10137.00
20210319,10125.00
20210322,10158.00
20210323,10163.00
20210324,10171.00
20210325,10158.00
20210326,10155.00
20210329,10166.00
20210330,10154.00
20210331,10141.00
20210401,10123.00
20210402,10126.00
20210405,10128.00
20210406,10139.00
20210407,10153.00
20210408,10149.00
20210409,10143.00
20210412,10140.00
20210413,10146.00
20210414,10161.00
20210415,10160.00
20210416,10161.00
20210419,10163.00
20210420,10167.00
20210421,10179.00
20210422,10180.00
20210423,10178.00
20210426,10173.00
20210427,10169.00
20210428,10158.00
20210430,10159.00
20210506,10163.00
20210507,10164.00
20210510,10166.00
20210511,10173.00
20210512,10172.00
20210513,10154.00
20210514,10165.00
20210517,10169.00
20210518,10168.00
20210519,10168.00
20210520,10162.00
20210521,10159.00
20210524,10162.00
20210525,10165.00
20210526,10165.00
20210527,10167.00
20210528,10159.00
20210531,10162.00
20210601,10160.00
20210602,10156.00
20210603,10155.00
20210604,10152.00
20210607,10155.00
20210608,10162.00
20210609,10171.00
20210610,10183.00
20210611,10192.00
20210614,10189.00
20210615,10179.00
20210616,10173.00
20210617,10164.00
20210618,10173.00
20210621,10180.00
20210622,10173.00
20210623,10175.00
20210624,10178.00
20210625,10177.00
20210628,10171.00
20210629,10170.00
20210630,10168.00
20210701,10181.00
20210702,10187.00
20210705,10192.00
20210706,10187.00
20210707,10193.00
20210708,10202.00
20210709,10193.00
20210712,10196.00
20210713,10200.00
20210714,10207.00
20210715,10219.00
20210716,10211.00
20210719,10213.00
20210720,10220.00
20210721,10211.00
20210726,10215.00
20210727,10209.00
20210728,10213.00
20210729,10215.00
20210730,10217.00
20210802,10217.00
20210803,10224.00
20210804,10230.00
20210805,10224.00
20210806,10218.00
20210810,10209.00
20210811,10200.00
20210812,10208.00
20210813,10207.00
20210816,10215.00
20210817,10219.00
20210818,10214.00
20210819,10213.00
20210820,10216.00
20210823,10211.00
20210824,10209.00
20210825,10207.00
20210826,10211.00
20210827,10206.00
20210830,10209.00
20210831,10208.00
20210901,10204.00
20210902,10206.00
20210903,10200.00
20210906,10192.00
20210907,10194.00
20210908,10188.00
20210909,10191.00
20210910,10192.00
20210913,10193.00
20210914,10194.00
20210915,10200.00
20210916,10193.00
20210917,10188.00
20210921,10194.00
20210922,10195.00
20210924,10179.00
20210927,10176.00
20210928,10161.00
20210929,10170.00
20210930,10172.00
20211001,10185.00
20211004,10186.00
20211005,10178.00
20211006,10166.00
20211007,10171.00
20211008,10162.00
20211011,10155.00
20211012,10156.00
20211013,10161.00
20211014,10167.00
20211015,10167.00
20211018,10157.00
20211019,10159.00
20211020,10151.00
20211021,10157.00
20211022,10149.00
20211025,10147.00
20211026,10145.00
20211027,10147.00
20211028,10159.00
20211029,10159.00
20211101,10164.00
20211102,10167.00
20211104,10171.00
20211105,10182.00
20211108,10182.00
20211109,10176.00
20211110,10180.00
20211111,10172.00
20211112,10169.00
20211115,10174.00
20211116,10170.00
20211117,10166.00
20211118,10163.00
20211119,10170.00
20211122,10169.00
20211124,10161.00
20211125,10160.00
20211126,10168.00
20211129,10166.00
20211130,10182.00
20211201,10178.00
20211202,10178.00
20211203,10186.00
20211206,10192.00
20211207,10179.00
20211208,10183.00
20211209,10184.00
20211210,10182.00
20211213,10186.00
20211214,10188.00
20211215,10188.00
20211216,10193.00
20211217,10190.00
20211220,10196.00
20211221,10184.00
20211222,10176.00
20211223,10172.00
20211224,10170.00
20211227,10174.00
20211228,10169.00
20211229,10171.00
20211230,10158.00
20220104,10152.00
20220105,10153.00
20220106,10136.00
20220107,10126.00
20220111,10116.00
20220112,10135.00
20220113,10134.00
20220114,10114.00
20220117,10121.00
20220118,10119.00
20220119,10126.00
20220120,10120.00
20220121,10128.00
20220124,10125.00
20220125,10124.00
20220126,10124.00
20220127,10106.00
20220128,10097.00
20220131,10086.00
20220201,10076.00
20220202,10078.00
20220203,10080.00
20220204,10059.00
20220207,10048.00
20220208,10030.00
20220209,10039.00
20220210,10017.00
20220214,10013.00
20220215,10007.00
20220216,9993.00
20220217,9971.00
20220218,9994.00
20220221,10015.00
20220222,10034.00
20220224,10032.00
20220225,10008.00
20220228,10034.00
20220301,10032.00
20220302,10069.00
20220303,10047.00
20220304,10059.00
20220307,10072.00
20220308,10050.00
20220309,10049.00
20220310,10031.00
20220311,10033.00
20220314,10029.00
20220315,10009.00
20220316,10018.00
20220317,10020.00
20220318,10017.00
20220322,10002.00
20220323,9994.00
20220324,9989.00
20220325,9974.00
20220328,9947.00
20220329,9928.00
20220330,9967.00
20220331,10005.00
20220401,10001.00
20220404,9999.00
20220405,9993.00
20220406,9960.00
20220407,9964.00
20220408,9980.00
20220411,9965.00
20220412,9961.00
20220413,9970.00
20220414,9983.00
20220415,9986.00
20220418,9978.00
20220419,9973.00
20220420,9957.00
20220421,9959.00
20220422,9945.00
20220425,9956.00
20220426,9961.00
20220427,9965.00
20220428,9979.00
20220502,9966.00
20220506,9951.00
20220509,9942.00
20220510,9945.00
20220511,9949.00
20220512,9957.00
20220513,9965.00
20220516,9962.00
20220517,9955.00
20220518,9954.00
20220519,9959.00
20220520,9971.00
20220523,9974.00
20220524,9984.00
20220525,9998.00
20220526,9967.00
20220527,9979.00
20220530,9973.00
20220531,9963.00
20220601,9961.00
20220602,9952.00
20220603,9966.00
20220606,9957.00
20220607,9946.00
20220608,9947.00
20220609,9942.00
20220610,9934.00
20220613,9887.00
20220614,9866.00
20220615,9835.00
20220616,9875.00
20220617,9874.00
20220620,9858.00
20220621,9852.00
20220622,9853.00
20220623,9869.00
20220624,9871.00
20220627,9849.00
20220628,9842.00
20220629,9854.00
20220630,9870.00
20220701,9887.00
20220704,9879.00
20220705,9867.00
20220706,9877.00
20220707,9879.00
20220708,9868.00
20220711,9857.00
20220712,9857.00
20220713,9873.00
20220714,9877.00
20220715,9890.00
20220719,9873.00
20220720,9866.00
20220721,9876.00
20220722,9900.00
20220725,9911.00
20220726,9922.00
20220727,9930.00
20220728,9917.00
20220729,9934.00
20220801,9920.00
20220802,9944.00
20220803,9929.00
20220804,9943.00
20220805,9958.00
20220808,9956.00
20220809,9969.00
20220810,9959.00
20220812,9961.00
20220815,9959.00
20220816,9978.00
20220817,9976.00
20220818,9958.00
20220819,9964.00
20220822,9932.00
20220823,9926.00
20220824,9923.00